Regional Weather Roundup
Issued by NWS Jackson, KY

Home | Current Version | Previous Version | Text Only | Print | Product List | Glossary Off
Versions: 1 2 3 4 5 6 7 8 9 10 11 12 13 14 15 16 17 18 19 20 21 22 23 24 25 26 27 28 29 30 31 32 33 34 35 36 37 38 39 40 41 42 43 44 45 46 47 48 49 50

865
ASUS43 KJKL 280510
RWRJKL

EAST KENTUCKY HOURLY WEATHER ROUNDUP
NATIONAL WEATHER SERVICE JACKSON KY
100 AM EDT THU JUL 28 2016

NOTE: "FAIR" INDICATES FEW OR NO CLOUDS BELOW 12,000 FEET WITH
NO SIGNIFICANT WEATHER AND/OR OBSTRUCTIONS TO VISIBILITY.

* THESE REPORTS ARE NOT UNDER NWS QUALITY CONTROL AND MAY NOT
  REPORT WEATHER SUCH AS PRECIPITATION AND FOG.

KYZ079-080-083-085-087-088-110-112-115-119-120-280600
...EASTERN KENTUCKY...

CITY           SKY/WX    TMP DP  RH WIND       PRES   REMARKS
JACKSON        LGT RAIN  71  70  96 VRB3      30.02S FOG
LONDON         LGT RAIN  70  67  90 S6        30.02S
SOMERSET*      CLOUDY    72  72 100 CALM      30.02R
MONTICELLO*    CLOUDY   N/A N/A N/A VRB7      30.00F
WILLIAMSBURG*  CLOUDY    70  70 100 CALM      30.03S
MIDDLESBORO*   CLOUDY    71  71  99 CALM      30.05F THUNDER
HARLAN APT*      N/A     68  66  94 CALM      30.06F
PIKE CO APT*   FOG       72  72 100 CALM      30.02S VSB 1/4
MOREHEAD APT*  MOCLDY    75  72  88 CALM      30.00R
ASHLAND*       MOCLDY    75  72  88 CALM      29.95S
$$

KYZ035-036-041-042-044-050-067-078-099-280600
...CENTRAL KENTUCKY...

CITY           SKY/WX    TMP DP  RH WIND       PRES   REMARKS
MT STERLING*   CLOUDY    77  72  83 CALM      29.99R
FLEMING/MASON* CLOUDY    76  73  93 SW5       29.98R
DANVILLE*      CLOUDY    72  72 100 SW7       30.01R
LEXINGTON      CLOUDY    78  74  87 S3        29.97S
FRANKFORT      TSTM      73  69  87 NW7       29.95S
LOUISVILLE     CLOUDY    79  73  82 CALM      29.93F
LEBANON*         N/A     75  75 100 CALM      29.96S FOG
GLASGOW*       CLOUDY    75  74  98 N5        29.95S
BOWLING GREEN  CLOUDY    75  73  93 W5        29.96S
$$

KYZ091>093-OHZ055-061-077-WVZ005-015-034-035-042-280600
...SOUTHERN OHIO/WEST VIRGINIA...

CITY           SKY/WX    TMP DP  RH WIND       PRES   REMARKS
COVINGTON      CLOUDY    77  75  93 W3        29.95F
COLUMBUS       CLOUDY    78  66  66 CALM      29.94S
DAYTON         CLOUDY    76  64  66 NW3       29.97F
WILMINGTON     MOCLDY    79  68  69 NW3       29.95F
HUNTINGTON     CLOUDY    74  73  97 CALM      29.97R FOG
CHARLESTON     MOCLDY    76  74  93 CALM      29.98R FOG
PINEVILLE*     MOCLDY    72  69  90 MISG      30.09R FOG
BECKLEY        CLOUDY    69  68  96 S8        30.07S
BLUEFIELD        N/A     71  69  93 NW3       30.10R
LOGAN CO APT*    N/A     72  72 100 CALM      30.01R
$$

VAZ002-007-008-TNZ017-027-036-066-071-280600
...SOUTHWEST VIRGINIA/EAST TENNESSEE...

CITY           SKY/WX    TMP DP  RH WIND       PRES   REMARKS
WISE*          MOCLDY    70  68  94 SW3       30.11R
JONESVILLE*    LGT RAIN  73  72  94 CALM      30.09R
ABINGDON*        N/A     76  72  86 SW3       30.06S
BRISTOL        TSTM      76  72  87 SW6       30.05R FOG
MORRISTOWN*    CLOUDY    84  70  61 VRB6      30.02R
SEVIERVILLE*   CLOUDY    84  66  54 SW7       30.01R
KNOXVILLE      CLOUDY    82  71  69 SW8       30.01R
OAK RIDGE      CLOUDY    83  71  67 CALM      30.02R
CROSSVILLE     CLOUDY    74  69  85 VRB3      30.07R
NASHVILLE      MOCLDY    83  70  64 S7        29.96R
$$

...KEY TO REMARKS...
VSB - VISIBILITY IN MILES
WCI - WIND CHILL INDEX
HX  - HEAT INDEX

$$




USA.gov is the U.S. government's official web portal to all federal, state and local government web resources and services.